Location: Jastrz?bniki
(50.3667°N, 20.3833°E)
Time: 12:25:48
(UTC+00:00)

Cosmos 2333 Rocket - Pass Details

Date: 05 August 2024
Orbit: 838 x 863 km, 70.8° (Epoch: 07 September)

Event Time Altitude Azimuth Distance (km) Brightness Sun altitude
Exits shadow 02:21:16 - 252° (WSW) 2,717 4.2 -7.7°
Reaches altitude 10° 02:21:58 10° 256° (WSW) 2,494 4.1 -7.6°
Maximum altitude 02:26:58 30° 316° (NW) 1,508 3.5 -7.0°
Drops below altitude 10° 02:32:00 10° 17° (NNE) 2,514 5.6 -6.3°
Sets 02:34:48 0° 28° (NNE) 3,455 6.7 -6.0°
